Weather in Silivri

Turkey     41°04′19″N   28°15′11″E
temp.,
°C
wind,
m/s
gust,
m/s
humid.,
%
clouds,
%
prec.,
mm/h
press.,
hPa
HPBL,
m
11 may, tue
tue1100:00+12ne812700 0.0 1020637
03:00+12ne711710 0.0 1019583
06:00+11ne710720 0.0 1019533
09:00+14ene79620 0.0 1019751
12:00+16ne99550 0.0 10191083
15:00+16ne99540 0.0 1017819
18:00+15ne910600 0.0 1016775
21:00+13ne812720 0.0 1016529
12 may, wed
wed1200:00+12ne710740 0.0 1015395
03:00+12ne68765 0.0 1013294
06:00+12ne57765 0.0 1013259
09:00+14ene566819 0.0 1012472
12:00+16se236093 0.0 1011353
15:00+16s12603 0.0 1010309
18:00+18nne46655 0.0 1009366
21:00+15ne7975100 0.0 1008201
13 may, thu
thu1300:00+14ene4469100 0.0 1008147
03:00+14ene33695 0.0 1007132
06:00+14ne22700 0.0 1008100
09:00+16ene11660 0.0 1008121
12:00+17sw22630 0.0 1009203
15:00+18sw3465100 0.0 1008142
18:00+20ssw33610 0.0 100766
21:00+18ssw22650 0.0 100811
14 may, fri
fri1400:00+17se01700 0.0 100811
03:00+17wnw11690 0.0 100911
06:00+16nnw22720 0.0 101024
09:00+18wsw33790 0.0 1011118
12:00+18sw34770 0.0 1012186
15:00+19wsw23730 0.0 1011144
18:00+20sw45650 0.0 1012180
21:00+18wsw46810 0.0 101254
15 may, sat
sat1500:00+17nw22824 0.0 101433
03:00+17wsw238084 0.0 101447
06:00+16wnw237789 0.0 101462
09:00+17sw117184 0.0 101583
12:00+18sse1171100 0.0 101483
15:00+20ese226210 0.0 1012102
18:00+22ne116098 0.0 1011140
21:00+18ne6974100 0.0 1009114